Orbital elements:
2023 TZ4                                                 Earth MOID = 0.0233 AU
Epoch 2023 Sept. 13.0 TT = JDT 2460200.5                Veres                   
M 352.04042              (2000.0)            P               Q                  
n   0.24234803     Peri.  182.12268     +0.91713312     -0.39568489             
a   2.5478648      Node   201.38369     +0.36760167     +0.88621540             
e   0.5994399      Incl.    7.55867     +0.15406444     +0.24094758             
P   4.07           H   25.38          G   0.15           U   8                  
Residuals in seconds of arc
231005 F51  0.0   0.1-    231010 M38  0.4-  0.3+    231010 L04  0.6+  0.0
231005 F51  0.2+  0.2+    231010 L54  0.9-  0.3-    231010 L04  0.2+  0.1-
231006 F52  0.1-  0.1-    231010 K35  0.3+  0.5-    231010 I93  0.3+  0.1+
231010 703  0.5+  0.4+    231010 K35  0.2+  0.9-    231010 958  0.1+  0.3+
231010 703  0.2+  0.8+    231010 B72  0.9-  0.2-    231010 I93  0.3+  0.1+
231010 703  0.7+  0.0     231010 L54  0.1+  0.4-    231010 I93  0.3+  0.0
231010 I52  0.1-  0.1+    231010 K35  0.0   0.0     231010 958  0.3+  0.0
231010 I52  0.3-  0.2+    231010 B72  0.5+  0.1-    231010 M45  0.3+  0.1-
231010 I52  0.2-  0.2+    231010 L54  2.6-  1.3-    231010 M45  0.6+  0.3-
231010 I52  0.1-  0.1+    231010 B72  0.1-  0.3-    231010 M45  0.5+  0.1-
231010 734  0.2+  0.1+    231010 104  0.2+  0.2+    231010 L01  0.4-  0.0
231010 734  0.2+  0.3+    231010 104  0.6+  0.4-    231010 L01  0.4-  0.2+
231010 734  0.0   0.1+    231010 104  0.2+  0.1+    231010 L01  0.4-  0.0
231010 I52  0.4-  0.1+    231010 K63  0.5+  0.1+    231010 L01  0.6-  0.1+
231010 I52  0.4-  0.1+    231010 K63  0.2+  0.1-    231010 L01  0.6-  0.2+
231010 I52  0.5-  0.2+    231010 K63  0.8+  0.3-    231010 204  0.2+  0.0
231010 I52  0.6-  0.4+    231010 L04  0.4+  0.2+    231010 204  0.1+  0.1+
231010 L18  0.2-  0.5+    231010 L04  0.5+  0.0     231010 K74  0.0   0.0
231010 L18  0.6+  0.2+    231010 L04  0.5+  0.1+    231010 204  0.3+  0.0
231010 L18  0.4+  0.3-    231010 L04  0.3-  0.5-    231011 K74  0.1-  0.3+
231010 M38  1.4-  0.5+    231010 958  0.6+  1.2+    231011 K74  0.3-  0.1+

Ephemeris:
2023 TZ4                 a,e,i = 2.55, 0.60, 8                   q = 1.0206
Date    TT    R. A. (2000) Decl.     Delta      r    Elong.  Phase     V
2023 09 11    20 25 28.6 +17 32 47   0.1536  1.1167   132.6    41.6    23.2
...
2023 09 26    20 50 32.1 +23 02 26   0.08033 1.0533   127.1    49.4    21.9
...
2023 10 04    22 01 12.1 +30 37 09   0.04466 1.0324   134.6    43.6    20.4
...
2023 10 10    01 19 54.0 +34 51 57   0.02799 1.0234   151.1    28.2    18.9
2023 10 11    02 08 24.1 +32 37 27   0.02757 1.0225   150.0    29.3    18.9
2023 10 12    02 53 48.0 +29 16 39   0.02806 1.0218   146.4    32.7    19.0
...
2023 10 18    05 25 11.5 +08 48 34   0.04482 1.0209   121.8    56.1    20.7
...
2023 10 26    06 20 12.6 -01 32 29   0.07983 1.0291   113.8    62.1    22.2
...
2023 11 10    06 42 59.8 -06 44 07   0.1491  1.0720   119.6    53.4    23.4

M. P. C. Staff               (C) Copyright 2023 MPC           M.P.E.C. 2023-T143





More information about the Iaude mailing list